| time (UTC) | temp C | wind direction | speed KPH | gust KPH | rain 1hr cm | rain 24hr cm | rain mn cm | humidity % | barometer mb |
| 20260906211933 | 19 | 349 | 4.8 | 4.8 | 0.00 | 0.00 | 0.00 | 65 | 1072.6 |
| 20260906210928 | 19 | 254 | 0.0 | 1.6 | 0.00 | 0.00 | 0.00 | 64 | 1072.4 |
| 20260906205924 | 19 | 324 | 1.6 | 1.6 | 0.00 | 0.00 | 0.00 | 65 | 1072.5 |
| 20260906204922 | 19 | 335 | 3.2 | 3.2 | 0.00 | 0.00 | 0.00 | 65 | 1072.5 |
| 20260906203920 | 19 | 102 | 11.3 | 12.9 | 0.00 | 0.00 | 0.00 | 65 | 1072.4 |
| 20260906202919 | 20 | 314 | 1.6 | 1.6 | 0.00 | 0.00 | 0.00 | 65 | 1072.4 |
| 20260906201919 | 18 | 107 | 4.8 | 4.8 | 0.00 | 0.00 | 0.00 | 68 | 1072.6 |
| 20260906200914 | 18 | 76 | 1.6 | 3.2 | 0.00 | 0.00 | 0.00 | 67 | 1072.5 |
| 20260906195911 | 19 | 317 | 3.2 | 4.8 | 0.00 | 0.00 | 0.00 | 65 | 1072.4 |
| 20260906194909 | 19 | 323 | 1.6 | 1.6 | 0.00 | 0.00 | 0.00 | 64 | 1072.1 |
| 20260906193906 | 20 | 320 | 1.6 | 3.2 | 0.00 | 0.00 | 0.00 | 66 | 1072.2 |
| 20260906192902 | 18 | 287 | 0.0 | 1.6 | 0.00 | 0.00 | 0.00 | 69 | 1072.4 |
| 20260906191901 | 18 | 195 | 1.6 | 1.6 | 0.00 | 0.00 | 0.00 | 70 | 1072.4 |
| 20260906190901 | 18 | 124 | 9.7 | 11.3 | 0.00 | 0.00 | 0.00 | 71 | 1072.5 |
| 20260906185901 | 20 | 83 | 11.3 | 14.5 | 0.00 | 0.00 | 0.00 | 68 | 1072.3 |
| 20260906184900 | 20 | 304 | 1.6 | 1.6 | 0.00 | 0.00 | 0.00 | 67 | 1072.6 |
| 20260906183856 | 19 | 117 | 11.3 | 12.9 | 0.00 | 0.00 | 0.00 | 68 | 1072.6 |
| 20260906182853 | 19 | 331 | 6.4 | 8.0 | 0.00 | 0.00 | 0.00 | 67 | 1072.7 |
| 20260906181849 | 19 | 342 | 3.2 | 4.8 | 0.00 | 0.00 | 0.00 | 68 | 1072.6 |
| 20260906180847 | 19 | 132 | 1.6 | 1.6 | 0.00 | 0.00 | 0.00 | 68 | 1072.6 |
| 20260906175844 | 18 | 85 | 8.0 | 9.7 | 0.00 | 0.00 | 0.00 | 69 | 1072.7 |
| 20260906174844 | 18 | 222 | 1.6 | 1.6 | 0.00 | 0.00 | 0.00 | 70 | 1072.9 |
| 20260906173845 | 18 | 149 | 0.0 | 1.6 | 0.00 | 0.00 | 0.00 | 71 | 1072.8 |
| 20260906172839 | 18 | 78 | 4.8 | 8.0 | 0.00 | 0.00 | 0.00 | 73 | 1072.8 |
| 20260906171837 | 18 | 71 | 8.0 | 9.7 | 0.00 | 0.00 | 0.00 | 74 | 1072.9 |
| 20260906170833 | 17 | 118 | 11.3 | 11.3 | 0.00 | 0.00 | 0.00 | 73 | 1072.7 |
| 20260906165831 | 17 | 92 | 11.3 | 12.9 | 0.00 | 0.00 | 0.00 | 73 | 1073.1 |
| 20260906164831 | 17 | 101 | 14.5 | 17.7 | 0.00 | 0.00 | 0.00 | 75 | 1072.9 |
| 20260906163826 | 17 | 61 | 9.7 | 14.5 | 0.00 | 0.00 | 0.00 | 76 | 1073.3 |
| 20260906162826 | 17 | 245 | 3.2 | 3.2 | 0.00 | 0.00 | 0.00 | 76 | 1073.1 |
| 20260906161826 | 16 | 106 | 9.7 | 12.9 | 0.00 | 0.00 | 0.00 | 79 | 1073.5 |
| 20260906160824 | 16 | 306 | 1.6 | 1.6 | 0.00 | 0.00 | 0.00 | 80 | 1073.1 |
| 20260906155823 | 16 | 94 | 8.0 | 9.7 | 0.00 | 0.00 | 0.00 | 80 | 1073.3 |
| 20260906154819 | 16 | 118 | 4.8 | 8.0 | 0.00 | 0.00 | 0.00 | 81 | 1073.4 |
| 20260906153818 | 16 | 104 | 11.3 | 12.9 | 0.00 | 0.00 | 0.00 | 81 | 1073.3 |
| 20260906152813 | 16 | 128 | 12.9 | 12.9 | 0.00 | 0.00 | 0.00 | 82 | 1073.3 |
| 20260906151813 | 16 | 104 | 16.1 | 17.7 | 0.00 | 0.00 | 0.00 | 80 | 1073.5 |
| 20260906150810 | 16 | 113 | 3.2 | 4.8 | 0.00 | 0.00 | 0.00 | 79 | 1073.0 |
| 20260906145811 | 17 | 107 | 1.6 | 3.2 | 0.00 | 0.00 | 0.00 | 78 | 1072.9 |
| 20260906144810 | 16 | 344 | 4.8 | 8.0 | 0.00 | 0.00 | 0.00 | 79 | 1073.0 |
| 20260906143810 | 16 | 83 | 4.8 | 9.7 | 0.00 | 0.00 | 0.00 | 79 | 1072.9 |
| 20260906142808 | 16 | 332 | 4.8 | 4.8 | 0.00 | 0.00 | 0.00 | 79 | 1072.8 |
| 20260906141808 | 16 | 109 | 4.8 | 4.8 | 0.00 | 0.00 | 0.00 | 81 | 1072.7 |
| 20260906140807 | 16 | 68 | 11.3 | 14.5 | 0.00 | 0.00 | 0.00 | 82 | 1072.8 |
| 20260906135806 | 16 | 65 | 8.0 | 11.3 | 0.00 | 0.00 | 0.00 | 81 | 1072.7 |
| 20260906134803 | 16 | 115 | 3.2 | 4.8 | 0.00 | 0.00 | 0.00 | 84 | 1072.4 |
| 20260906133759 | 15 | 88 | 4.8 | 4.8 | 0.00 | 0.00 | 0.00 | 85 | 1072.7 |
| 20260906132756 | 15 | 106 | 8.0 | 12.9 | 0.00 | 0.00 | 0.00 | 87 | 1072.6 |
| 20260906131753 | 15 | 95 | 9.7 | 11.3 | 0.00 | 0.00 | 0.00 | 89 | 1072.2 |
| 20260906130748 | 15 | 116 | 4.8 | 4.8 | 0.00 | 0.00 | 0.00 | 91 | 1072.5 |
| 20260906125748 | 14 | 75 | 9.7 | 11.3 | 0.00 | 0.00 | 0.00 | 93 | 1072.3 |
| 20260906124746 | 14 | 113 | 4.8 | 4.8 | 0.00 | 0.00 | 0.00 | 96 | 1072.4 |
| 20260906123741 | 14 | 90 | 3.2 | 3.2 | 0.00 | 0.00 | 0.00 | 97 | 1072.5 |
| 20260906122736 | 13 | 169 | 1.6 | 1.6 | 0.00 | 0.00 | 0.00 | 99 | 1072.5 |
| 20260906121733 | 12 | 299 | 0.0 | 0.0 | 0.00 | 0.00 | 0.00 | 99 | 1072.4 |
| 20260906120731 | 12 | 308 | 1.6 | 1.6 | 0.00 | 0.00 | 0.00 | 99 | 1072.2 |
| 20260906115729 | 12 | 321 | 1.6 | 1.6 | 0.00 | 0.00 | 0.00 | 99 | 1072.1 |
| 20260906114728 | 12 | 201 | 0.0 | 0.0 | 0.00 | 0.00 | 0.00 | 99 | 1071.9 |
| 20260906113725 | 11 | 291 | 0.0 | 0.0 | 0.00 | 0.00 | 0.00 | 99 | 1072.0 |
| 20260906112724 | 11 | 311 | 0.0 | 1.6 | 0.00 | 0.00 | 0.00 | 99 | 1071.9 |
| 20260906111720 | 10 | 304 | 1.6 | 1.6 | 0.00 | 0.00 | 0.00 | 99 | 1072.2 |
| 20260906110716 | 10 | 298 | 0.0 | 0.0 | 0.00 | 0.00 | 0.00 | 99 | 1072.3 |
| 20260906105716 | 10 | 297 | 0.0 | 0.0 | 0.00 | 0.00 | 0.00 | 99 | 1071.9 |
| 20260906104712 | 10 | 298 | 0.0 | 0.0 | 0.00 | 0.00 | 0.00 | 99 | 1071.8 |
| 20260906103709 | 10 | 302 | 0.0 | 1.6 | 0.00 | 0.00 | 0.00 | 99 | 1071.5 |
| 20260906102706 | 11 | 290 | 0.0 | 0.0 | 0.00 | 0.00 | 0.00 | 99 | 1071.5 |
| 20260906101705 | 10 | 298 | 0.0 | 0.0 | 0.00 | 0.00 | 0.00 | 99 | 1071.2 |
| 20260906100702 | 10 | 303 | 1.6 | 1.6 | 0.00 | 0.00 | 0.00 | 99 | 1071.1 |
| 20260906095702 | 10 | 298 | 0.0 | 0.0 | 0.00 | 0.00 | 0.00 | 99 | 1071.2 |
| 20260906094702 | 10 | 298 | 0.0 | 0.0 | 0.00 | 0.00 | 0.00 | 99 | 1071.1 |
| 20260906093700 | 10 | 289 | 0.0 | 0.0 | 0.00 | 0.00 | 0.00 | 99 | 1071.1 |
| 20260906092656 | 10 | 298 | 0.0 | 1.6 | 0.00 | 0.00 | 0.00 | 99 | 1071.0 |
| 20260906091652 | 11 | 293 | 1.6 | 1.6 | 0.00 | 0.00 | 0.00 | 99 | 1071.0 |
| 20260906090650 | 11 | 289 | 0.0 | 0.0 | 0.00 | 0.00 | 0.00 | 99 | 1070.8 |
| 20260906085648 | 11 | 290 | 0.0 | 0.0 | 0.00 | 0.00 | 0.00 | 99 | 1070.6 |
| 20260906084643 | 11 | 290 | 0.0 | 0.0 | 0.00 | 0.00 | 0.00 | 99 | 1070.6 |
| 20260906083643 | 11 | 293 | 0.0 | 0.0 | 0.00 | 0.00 | 0.00 | 99 | 1070.3 |
| 20260906082640 | 11 | 305 | 0.0 | 0.0 | 0.00 | 0.00 | 0.00 | 99 | 1070.3 |
| 20260906081637 | 11 | 292 | 0.0 | 0.0 | 0.00 | 0.00 | 0.00 | 99 | 1070.3 |
| 20260906080634 | 11 | 290 | 0.0 | 0.0 | 0.00 | 0.00 | 0.00 | 99 | 1070.0 |
| 20260906075629 | 11 | 289 | 0.0 | 0.0 | 0.00 | 0.00 | 0.00 | 99 | 1070.3 |
| 20260906074626 | 11 | 323 | 0.0 | 0.0 | 0.00 | 0.00 | 0.00 | 99 | 1070.3 |
| 20260906073625 | 11 | 287 | 0.0 | 0.0 | 0.00 | 0.00 | 0.00 | 99 | 1070.1 |
| 20260906072622 | 11 | 280 | 0.0 | 0.0 | 0.00 | 0.00 | 0.00 | 99 | 1070.0 |
| 20260906071620 | 11 | 307 | 0.0 | 0.0 | 0.00 | 0.00 | 0.00 | 99 | 1070.0 |
| 20260906070617 | 11 | 275 | 0.0 | 0.0 | 0.00 | 0.00 | 0.00 | 99 | 1069.9 |
| 20260906065612 | 11 | 295 | 0.0 | 0.0 | 0.00 | 0.00 | 0.00 | 99 | 1070.0 |
| 20260906064609 | 11 | 292 | 0.0 | 0.0 | 0.00 | 0.00 | 0.00 | 99 | 1069.9 |
| 20260906063604 | 11 | 297 | 0.0 | 0.0 | 0.00 | 0.00 | 0.00 | 99 | 1069.7 |
| 20260906062602 | 11 | 292 | 0.0 | 0.0 | 0.00 | 0.00 | 0.00 | 99 | 1069.8 |
| 20260906061557 | 11 | 292 | 0.0 | 0.0 | 0.00 | 0.00 | 0.00 | 99 | 1069.7 |
| 20260906060553 | 11 | 271 | 0.0 | 0.0 | 0.00 | 0.00 | 0.00 | 99 | 1069.6 |
| 20260906055551 | 11 | 285 | 0.0 | 0.0 | 0.00 | 0.00 | 0.00 | 99 | 1069.7 |
| 20260906054547 | 11 | 289 | 0.0 | 0.0 | 0.00 | 0.00 | 0.00 | 99 | 1069.4 |
| 20260906053544 | 12 | 292 | 0.0 | 0.0 | 0.00 | 0.00 | 0.00 | 99 | 1069.6 |
| 20260906052540 | 12 | 276 | 0.0 | 0.0 | 0.00 | 0.00 | 0.00 | 99 | 1069.4 |
| 20260906051538 | 12 | 272 | 0.0 | 0.0 | 0.00 | 0.00 | 0.00 | 99 | 1069.6 |
| 20260906050534 | 12 | 281 | 0.0 | 0.0 | 0.00 | 0.00 | 0.00 | 99 | 1069.7 |
| 20260906045534 | 12 | 275 | 0.0 | 0.0 | 0.00 | 0.00 | 0.00 | 99 | 1069.7 |
| 20260906044530 | 12 | 276 | 0.0 | 0.0 | 0.00 | 0.00 | 0.00 | 99 | 1069.7 |
| 20260906043527 | 13 | 276 | 0.0 | 0.0 | 0.00 | 0.00 | 0.00 | 99 | 1069.7 |
| 20260906042528 | 13 | 276 | 0.0 | 0.0 | 0.00 | 0.00 | 0.00 | 99 | 1069.8 |
| 20260906041525 | 13 | 291 | 0.0 | 0.0 | 0.00 | 0.00 | 0.00 | 99 | 1069.4 |
| 20260906040526 | 13 | 288 | 0.0 | 0.0 | 0.00 | 0.00 | 0.00 | 99 | 1069.5 |
| 20260906035522 | 13 | 304 | 0.0 | 0.0 | 0.00 | 0.00 | 0.00 | 99 | 1069.6 |
| 20260906034518 | 13 | 281 | 0.0 | 0.0 | 0.00 | 0.00 | 0.00 | 99 | 1069.5 |
| 20260906033514 | 13 | 285 | 0.0 | 0.0 | 0.00 | 0.00 | 0.00 | 99 | 1069.5 |
| 20260906032512 | 13 | 286 | 0.0 | 0.0 | 0.00 | 0.00 | 0.00 | 99 | 1069.4 |
| 20260906031508 | 13 | 270 | 0.0 | 0.0 | 0.00 | 0.00 | 0.00 | 99 | 1069.3 |
| 20260906030503 | 13 | 281 | 0.0 | 0.0 | 0.00 | 0.00 | 0.00 | 99 | 1069.0 |
| 20260906025502 | 14 | 275 | 0.0 | 0.0 | 0.00 | 0.00 | 0.00 | 99 | 1069.3 |
| 20260906024501 | 14 | 275 | 0.0 | 0.0 | 0.00 | 0.00 | 0.00 | 99 | 1069.0 |
| 20260906023458 | 14 | 284 | 0.0 | 0.0 | 0.00 | 0.00 | 0.00 | 99 | 1069.2 |
| 20260906022454 | 14 | 289 | 0.0 | 0.0 | 0.00 | 0.00 | 0.00 | 99 | 1069.1 |
| 20260906021449 | 14 | 291 | 0.0 | 0.0 | 0.00 | 0.00 | 0.00 | 99 | 1069.2 |
| 20260906020444 | 14 | 290 | 0.0 | 0.0 | 0.00 | 0.00 | 0.00 | 99 | 1069.2 |
| 20260906015443 | 14 | 285 | 0.0 | 0.0 | 0.00 | 0.00 | 0.00 | 99 | 1069.3 |
| 20260906014443 | 15 | 286 | 0.0 | 0.0 | 0.00 | 0.00 | 0.00 | 99 | 1069.2 |
| 20260906013440 | 15 | 289 | 0.0 | 0.0 | 0.00 | 0.00 | 0.00 | 99 | 1069.1 |
| 20260906012436 | 15 | 293 | 1.6 | 1.6 | 0.00 | 0.00 | 0.00 | 98 | 1069.1 |
| 20260906011431 | 16 | 285 | 0.0 | 0.0 | 0.00 | 0.00 | 0.00 | 96 | 1069.2 |
| 20260906010427 | 16 | 67 | 1.6 | 1.6 | 0.00 | 0.00 | 0.00 | 97 | 1069.5 |
| 20260906005423 | 16 | 281 | 0.0 | 0.0 | 0.00 | 0.00 | 0.00 | 97 | 1069.3 |
| 20260906004422 | 16 | 283 | 0.0 | 0.0 | 0.00 | 0.00 | 0.00 | 98 | 1069.3 |
| 20260906003419 | 16 | 284 | 0.0 | 0.0 | 0.00 | 0.00 | 0.00 | 98 | 1069.2 |
| 20260906002419 | 16 | 284 | 0.0 | 0.0 | 0.00 | 0.00 | 0.00 | 97 | 1069.2 |
| 20260906001416 | 16 | 283 | 0.0 | 0.0 | 0.00 | 0.00 | 0.00 | 96 | 1068.9 |
| 20260906000411 | 17 | 283 | 0.0 | 0.0 | 0.00 | 0.00 | 0.00 | 95 | 1069.0 |
| 20260905235406 | 17 | 284 | 0.0 | 0.0 | 0.00 | 0.00 | 0.00 | 93 | 1069.1 |
| 20260905234402 | 17 | 287 | 0.0 | 0.0 | 0.00 | 0.00 | 0.00 | 93 | 1069.2 |
| 20260905233358 | 17 | 290 | 1.6 | 1.6 | 0.00 | 0.00 | 0.00 | 94 | 1068.9 |
| 20260905232354 | 16 | 284 | 0.0 | 0.0 | 0.00 | 0.00 | 0.00 | 95 | 1068.8 |
| 20260905231349 | 16 | 284 | 0.0 | 0.0 | 0.00 | 0.00 | 0.00 | 95 | 1068.7 |
| 20260905230349 | 17 | 284 | 0.0 | 0.0 | 0.00 | 0.00 | 0.00 | 94 | 1068.8 |
| 20260905225344 | 17 | 284 | 0.0 | 0.0 | 0.00 | 0.00 | 0.00 | 91 | 1068.4 |
| 20260905224341 | 17 | 284 | 0.0 | 0.0 | 0.00 | 0.00 | 0.00 | 91 | 1068.9 |
| 20260905223339 | 17 | 282 | 0.0 | 0.0 | 0.00 | 0.00 | 0.00 | 90 | 1069.0 |
| 20260905222338 | 18 | 293 | 0.0 | 0.0 | 0.00 | 0.00 | 0.00 | 89 | 1068.9 |
| 20260905221337 | 18 | 287 | 0.0 | 0.0 | 0.00 | 0.00 | 0.00 | 87 | 1068.5 |
| 20260905220334 | 18 | 296 | 1.6 | 1.6 | 0.00 | 0.00 | 0.00 | 85 | 1068.2 |
| 20260905215329 | 18 | 296 | 0.0 | 1.6 | 0.00 | 0.00 | 0.00 | 84 | 1068.0 |
| 20260905214326 | 20 | 335 | 1.6 | 1.6 | 0.00 | 0.00 | 0.00 | 79 | 1068.0 |
| 20260905213323 | 20 | 260 | 0.0 | 1.6 | 0.00 | 0.00 | 0.00 | 78 | 1068.1 |